538  
ASUS44 KFWD 102201  
RWRFWD  
NORTH TEXAS HOURLY WEATHER ROUNDUP  
NATIONAL WEATHER SERVICE FORT WORTH TX  
400 PM CST FRI NOV 10 2017  
 
NOTE: "FAIR" INDICATES FEW OR NO CLOUDS BELOW 12,000 FEET WITH NO  
SIGNIFICANT WEATHER AND/OR S TO VISIBILITY
.  
 
TXZ118-119-102300-  
DALLAS/FORT WORTH METROPLEX  
 
CITY SKY/WX TMP DP RH WIND PRES REMARKS
 
DFW AIRPORT MOSUNNY 64 45 49 SE8 30.17F  
DALLAS LOVE MOSUNNY 64 45 49 SE9 30.19F  
FTW MEACHAM SUNNY 64 47 53 SE8 30.18F  
DAL-EXECUTIVE SUNNY 62 46 55 SE8 30.19S  
FTW-ALLIANCE CLOUDY 62 46 55 SE7 30.19S  
FTW-NAS-JRB SUNNY 63 45 51 SE9 30.19F  
FTW-SPINKS SUNNY 63 46 55 SE7 30.20F  
ARLINGTON SUNNY 62 47 57 SE9 30.19F  
GRAND PRAIRIE SUNNY 63 45 51 SE6 30.21S  
ADDISON SUNNY 64 43 45 SE8 30.20S  
LANCASTER SUNNY 63 44 51 SE5 30.21S  

 
 
TXZ091>094-102>105-117-120-121-131>134-102300-  
NORTH CENTRAL TEXAS  
 
CITY SKY/WX TMP DP RH WIND PRES REMARKS
 
SHRMAN/DENISON NOT AVBL  
GAINESVILLE SUNNY 62 44 51 S8 30.20S  
BOWIE MOSUNNY 58 46 66 S6 30.19S  
BRIDGEPORT CLOUDY 59 47 64 SE7 30.20F  
DECATUR CLOUDY 60 46 59 S9 30.18R  
DENTON SUNNY 63 46 54 S9 30.19F  
MCKINNEY MOSUNNY 63 40 42 S8 30.19F  
BONHAM SUNNY 62 37 38 SE12 30.21S  
ROCKWALL SUNNY 64 39 39 E10 30.20S  
TERRELL SUNNY 65 35 33 SE10 30.20F  
WAXAHACHIE SUNNY 63 47 54 SE7 30.20F  
CLEBURNE MOSUNNY 63 48 59 S10 30.20F  
GRANBURY PTSUNNY 62 48 61 SE7 30.19F  

 
 
TXZ083>090-098>101-113>116-127>130-139>142-154-155-102300-  
WESTERN NORTH TEXAS  
 
CITY SKY/WX TMP DP RH WIND PRES REMARKS
 
WICHITA FALLS MOSUNNY 55 46 71 SE8 30.17F  
WF-KICKAPOO SUNNY 56 47 71 E6 30.21S  
VERNON CLOUDY 56 42 58 SE8 30.16F  
ABILENE CLOUDY 54 50 86 SE15 30.16S  
ABILENE-DYESS CLOUDY 55 52 90 SE13 30.15S  
GRAHAM N/A 58 48 70 E5 30.16F  
BRECKENRIDGE CLOUDY 60 48 66 S8 30.17S  
CISCO CLOUDY 55 50 82 S13 30.18S  
EASTLAND CLOUDY 55 49 78 S12 30.18S  
RANGER CLOUDY 56 49 79 S9 30.18S  
MINERAL WELLS SUNNY 60 47 61 SE10 30.17S  
STEPHENVILLE CLOUDY 58 48 71 S6 30.21S  
COMANCHE CLOUDY 55 52 88 S8 30.19S  
BROWNWOOD CLOUDY 55 50 82 SE7 30.19S  
COLEMAN CLOUDY 54 50 88 SE9 30.18S  

 
 
TXZ143>147-156>162-174-175-102300-  
CENTRAL TEXAS  
 
CITY SKY/WX TMP DP RH WIND PRES REMARKS
 
WACO CLOUDY 63 48 58 SE6 30.19F  
WACO-TSTC CLOUDY 64 48 55 E3 30.20S  
WACO-MCGREGOR CLOUDY 62 51 67 SE9 30.20S  
HILLSBORO PTSUNNY 62 50 64 SE5 30.19F  
CORSICANA SUNNY 66 41 40 NE6 30.21F  
MEXIA CLOUDY 65 43 45 E10 30.19S  
HEARNE CLOUDY 65 46 50 E5 30.21S  
CAMERON CLOUDY 65 48 55 SE3 30.20S  
TEMPLE CLOUDY 62 50 64 SE7 30.20F  
KILLEEN NOT AVBL  
KILLEEN-SKYLRK CLOUDY 61 49 64 SE6 30.20S  
GATESVILLE MOSUNNY 61 48 63 CALM 30.21S  
HAMILTON CLOUDY 58 50 74 SE8 30.20S  
LAMPASAS CLOUDY 58 51 77 SE7 30.19S  

 
 
TXZ095>097-106>112-122>126-135>138-148>153-164>167-102300-  
EAST TEXAS  
 
CITY SKY/WX TMP DP RH WIND PRES REMARKS
 
PARIS SUNNY 63 35 35 SE10 30.22F  
SULPHUR SPRNGS SUNNY 65 33 30 SE8 30.23F  
MOUNT PLEASANT SUNNY 65 36 34 E7 30.24F  
GILMER SUNNY 64 36 36 E6 30.23S  
MINEOLA SUNNY 64 39 39 SE6 30.22S  
TYLER MOSUNNY 66 37 34 E6 30.21S  
LONGVIEW NOT AVBL  
MARSHALL SUNNY 65 35 33 E3 30.25F  
ATHENS PTSUNNY 61 36 39 E6 30.20S  
PALESTINE CLOUDY 65 44 46 E5 30.22S HAZE  
JACKSONVILLE MOSUNNY 65 41 41 E3 30.23S  
HENDERSON SUNNY 65 40 39 E7 30.23S  
CENTER CLEAR 64 38 37 E5 30.24R  
NACOGDOCHES PTSUNNY 67 42 40 E6 30.22S  
LUFKIN SUNNY 66 44 45 NE6 30.21S  

 
 
SUPPLEMENTAL OBSERVATIONS (NWS FORT WORTH AREA)  
 
CITY SKY/WX TMP DP RH WIND PRES REMARKS
 

 
 
SUPPLEMENTAL OBSERVATIONS (NWS NORMAN AREA)  
 
CITY SKY/WX TMP DP RH WIND PRES REMARKS
 
GOODLETT N/A 52 44 73 E10 30.14  
ODELL N/A 53 46 76 E8 30.17  
CROWELL N/A 54 46 74 SE12 30.16  
KNOX CITY N/A 56 48 74 SE9 30.16  
SEYMOUR N/A 57 47 68 E10 30.17  

 
 
SUPPLEMENTAL OBSERVATIONS (NWS SAN ANGELO AREA)  
 
CITY SKY/WX TMP DP RH WIND PRES REMARKS
 
WEINERT N/A 56 49 74 SE9 30.16  
HASKELL N/A 56 48 75 SE9 30.15  
THROCKMORTON N/A 58 49 72 SE6 30.17  
STAMFORD N/A 56 51 81 SE9 30.16  
CLYDE N/A 53 50 87 SE10 30.17  

 
 
SUPPLEMENTAL OBSERVATIONS (NWS SHREVEPORT AREA)  
 
CITY SKY/WX TMP DP RH WIND PRES REMARKS
 

 
 
SUPPLEMENTAL OBSERVATIONS ARE A COLLECTION OF AUTOMATED INSTRUMENTS  
THAT ARE MAINTAINED BY A VARIETY OF FEDERAL AND STATE AGENCIES.  
CERTAIN ELEMENTS...SUCH AS HUMIDITY VALUES AND SUSTAINED WIND  
SPEEDS...MAY BE APPROXIMATED.  
 
 
 
CLICK HERE TO GO TO PREVIOUS BULLETINS.

The Nexlab TX Page Main Text Page

The Nexlab TX Page Main Text Page